Location: Columbia
(38.9520°N, 92.3340°W)
Time: 18:54:18
(UTC-05:00)

Iridium 15 - Visible Passes

Search period start: 28 September 2016 00:00
Search period end: 08 October 2016 00:00
Orbit: 776 x 779 km, 86.4° (Epoch: 28 September)

Date Brightness Start Highest point End Pass type
(mag) Time Alt. Az. Time Alt. Az. Time Alt. Az.
28 Sep 7.8 19:34:30 10° NE 19:36:06 11° ENE 19:37:11 11° E visible
28 Sep 6.0 21:12:12 10° N 21:17:26 76° W 21:17:41 74° WSW visible
29 Sep 6.0 20:38:44 10° N 20:43:53 57° E 20:44:45 50° ESE visible
29 Sep 8.6 22:21:08 10° NW 22:24:02 15° WNW 22:25:15 14° W visible
30 Sep 6.7 20:05:37 10° NNE 20:10:13 31° E 20:11:54 25° ESE visible
30 Sep 7.8 21:46:26 10° NNW 21:50:49 28° W 21:52:26 23° WSW visible
01 Oct 7.5 19:33:06 10° NE 19:36:25 17° ENE 19:39:11 12° ESE visible
01 Oct 6.7 21:12:24 10° NNW 21:17:28 52° W 21:19:44 30° SSW visible
02 Oct 5.9 20:38:45 10° N 20:43:59 84° E 20:47:14 24° S visible
03 Oct 6.3 20:05:24 10° N 20:10:24 44° E 20:15:05 11° SSE visible
03 Oct 8.4 21:47:05 10° NW 21:50:43 19° W 21:54:20 10° SW visible
04 Oct 7.0 19:32:29 10° NNE 19:36:41 24° E 19:40:52 10° SE visible
04 Oct 7.5 21:12:43 10° NNW 21:17:26 35° W 21:22:08 10° SSW visible
05 Oct 6.3 20:38:52 10° N 20:44:03 67° W 20:49:12 10° S visible
06 Oct 5.9 20:05:20 10° N 20:10:32 66° E 20:15:42 10° SSE visible
06 Oct 8.9 21:48:13 10° NW 21:50:35 13° WNW 21:52:57 10° WSW visible
07 Oct 6.6 19:32:08 10° NNE 19:36:54 35° E 19:41:37 10° SSE visible
07 Oct 8.2 21:13:13 10° NNW 21:17:23 25° W 21:21:32 10° SW visible
